sat.trackr.live / text

‹ back to catalog

STARLINK-32002

NORAD 60200 · 2024-124T

PAYLOAD ACTIVE UNKNOWN

§ Identity

Operator
Country
US
Launch date
2024-07-03
Launch site
AFETR
Launch vehicle
Mass (kg)
RCS (m²)

Purposes: comms

External: N2YO · Heavens-Above · Gunter

§ Orbital elements

Epoch: 2026-09-21T20:58:02.502048Z

Period
94.01 min
Inclination
53.1579°
Eccentricity
0.0000991
Mean motion
15.31725732 rev/d
Perigee alt
470.0 km
Apogee alt
471.3 km
Semi-major
6,848.8 km
B*
-1.6820e-4
RAAN
129.7354°
Arg perigee
70.8166°
Mean anomaly
289.2942°
Rev number
12,435

§ Raw data

STARLINK-320021 60200U 24124T   26264.87364007 -.00005585  00000+0 -16820-3 0  99902 60200  53.1579 129.7354 0000991  70.8166 289.2942 15.31725732124355

JSON: /api/v1/satellites/60200 · /tle

For live sub-satellite position, see the globe view (requires WebGL).

§ Visibility from observer

Set your observer location to see the next 7 days of passes ≥ 10°. The values pass through the URL so the page stays shareable.

No JS? Fill the form by hand. The geolocation button needs JavaScript.